COSMOS 2599 (RODNIK-S *)

Last updated on Wed Dec 31 2025 00:02:07 GMT+0000 (Coordinated Universal Time)

1 66649U 25273C 25364.61485339 .00000031 00000+0 15818-3 0 9998 2 66649 82.5048 275.3931 0006385 231.2259 128.8250 12.41152614 4351
UTC large
Height (km)
Speed (km/s)
/
Latitude / Longitude
Inclination (degrees)
Orbital Period (minutes)
Azimuth
Elevation
Range (km)
Doppler Factor

Next 0 passes for location: London (51.5072 / 0.1276)

Sorry there are no passes over London.